Location: Bonny Doon Airfield
(37.0704°N, 122.1252°W)
Time: 09:31:00
(UTC-08:00)

BREEZE M DEB (TANK) - Visible Passes

Search period start: 22 February 2017 00:00
Search period end: 04 March 2017 00:00
Orbit: 318 x 13713 km, 49.6° (Epoch: 21 February)

Date Brightness Start Highest point End Pass type
(mag) Time Alt. Az. Time Alt. Az. Time Alt. Az.
22 Feb 9.4 03:25:23 10° WNW 04:54:03 - WSW 03:44:12 14° W visible
22 Feb 8.0 19:47:54 10° WNW 20:08:38 69° NNE 22:05:03 10° SE visible
23 Feb 9.1 00:21:10 10° NW 01:09:13 50° WSW 02:51:31 10° SSW visible
23 Feb 6.7 17:06:24 10° W 17:15:22 59° N 18:07:55 10° ENE visible
23 Feb 8.5 21:36:04 10° NW 22:10:00 89° SW 00:11:27 10° SSE visible
24 Feb 9.3 02:18:56 10° WNW 04:04:34 10° SW 04:05:48 10° SW visible
24 Feb 7.7 18:53:49 10° WNW 19:10:05 63° NNE 20:04:34 28° E visible
24 Feb 9.0 23:25:27 10° NW 00:10:25 60° WSW 01:59:47 10° S visible
25 Feb 8.3 20:41:38 10° WNW 21:09:27 82° NE 23:11:16 10° SE visible
26 Feb 9.2 01:19:00 10° WNW 02:03:45 32° W 03:27:52 10° SW visible
26 Feb 7.3 17:59:48 10° WNW 18:12:32 59° N 19:16:05 17° E visible
26 Feb 8.8 22:30:15 10° NW 23:10:35 71° WSW 01:05:36 10° S visible
27 Feb 8.1 19:47:21 10° WNW 20:09:42 74° NNE 22:07:38 10° SE visible
28 Feb 9.1 00:21:27 10° WNW 01:06:57 42° WSW 02:42:48 10° SSW visible
28 Feb 7.0 17:05:49 10° WNW 17:15:46 57° N 18:16:12 10° E visible
28 Feb 8.6 21:35:24 10° NW 22:10:12 81° SW 00:09:09 10° SSE visible
01 Mar 9.5 02:25:16 10° WNW 02:55:06 16° W 03:03:05 16° W visible
01 Mar 7.8 18:53:08 10° WNW 19:10:55 67° NNE 20:13:04 28° ESE visible
01 Mar 9.1 23:25:07 10° NW 00:08:49 52° WSW 01:53:16 10° S visible
02 Mar 8.4 20:40:48 10° NW 21:09:52 90° NE 23:10:13 10° SSE visible
03 Mar 9.3 01:21:06 10° WNW 02:00:21 25° W 02:15:54 24° WSW visible
03 Mar 7.5 17:58:59 10° WNW 18:13:00 61° NNE 19:26:15 16° ESE visible
